When you browse on this site, cookies collect data to enhance your experience and personalize the content and advertising you see.
Visit our Privacy Policy to learn more. By continuing to use the site, you agree to this use of cookies and data.
  • In Latvia
  • List of Countries
  • For 7 days
  • Water Temperature
  • Satellite Maps
  • Weather Map
  • Weather Widgets
  • user-avatar
    Login

    Hourly Weather Jurmala

    Today, 16 February, Saturday

    Time Temperature Precipitation Wind Pressure Humidity
    00:00 +2°C° 0 mm 3 mps 766 mmHg 92%
    01:00 +2°C° 0 mm 3 mps 766 mmHg 91%
    02:00 +1°C° 0 mm 3 mps 766 mmHg 90%
    03:00 +1°C° 0 mm 3 mps 766 mmHg 89%
    04:00 +1°C° 0 mm 3 mps 765 mmHg 87%
    05:00 0°C° 0 mm 4 mps 765 mmHg 86%
    06:00 0°C° 0 mm 4 mps 765 mmHg 83%
    07:00 0°C° 0 mm 4 mps 765 mmHg 81%
    08:00 0°C° 0 mm 4 mps 764 mmHg 78%
    09:00 +3°C° 0 mm 4 mps 764 mmHg 73%
    10:00 +3°C° 0 mm 5 mps 764 mmHg 67%
    11:00 +5°C° 0 mm 5 mps 764 mmHg 62%
    12:00 +6°C° 0 mm 5 mps 763 mmHg 60%
    13:00 +7°C° 0 mm 6 mps 763 mmHg 59%
    14:00 +8°C° 0 mm 6 mps 763 mmHg 58%
    15:00 +7°C° 0 mm 6 mps 762 mmHg 61%
    16:00 +5°C° 0 mm 6 mps 761 mmHg 64%
    17:00 +4°C° 0 mm 6 mps 761 mmHg 67%
    18:00 +4°C° 0 mm 6 mps 760 mmHg 69%
    19:00 +3°C° 0 mm 6 mps 760 mmHg 71%
    20:00 +3°C° 0 mm 6 mps 760 mmHg 73%
    21:00 +2°C° 0 mm 6 mps 759 mmHg 76%
    22:00 +2°C° 0 mm 6 mps 759 mmHg 79%
    23:00 +2°C° 0 mm 6 mps 759 mmHg 82%

    Tomorrow, 17 February, Sunday

    Time Temperature Precipitation Wind Pressure Humidity
    00:00 +2°C° 0 mm 6 mps 759 mmHg 82%
    01:00 +2°C° 0 mm 5 mps 759 mmHg 83%
    02:00 +2°C° 0 mm 5 mps 760 mmHg 84%
    03:00 +2°C° 0 mm 5 mps 760 mmHg 86%
    04:00 +2°C° 0 mm 5 mps 760 mmHg 89%
    05:00 +3°C° 0 mm 4 mps 760 mmHg 92%
    06:00 +3°C° 0 mm 4 mps 760 mmHg 92%
    07:00 +1°C° 0 mm 4 mps 761 mmHg 92%
    08:00 +1°C° 0 mm 4 mps 761 mmHg 93%
    09:00 +1°C° 0 mm 4 mps 762 mmHg 85%
    10:00 +1°C° 0 mm 4 mps 762 mmHg 77%
    11:00 +3°C° 0 mm 4 mps 763 mmHg 69%
    12:00 +3°C° 0 mm 4 mps 763 mmHg 66%
    13:00 +3°C° 0 mm 4 mps 763 mmHg 63%
    14:00 +3°C° 0 mm 4 mps 763 mmHg 59%
    15:00 +3°C° 0 mm 3 mps 764 mmHg 64%
    16:00 +2°C° 0 mm 3 mps 764 mmHg 68%
    17:00 +1°C° 0 mm 3 mps 764 mmHg 72%
    18:00 0°C° 0 mm 3 mps 765 mmHg 75%
    19:00 0°C° 0 mm 3 mps 765 mmHg 78%
    20:00 -1°C° 0 mm 2 mps 765 mmHg 82%
    21:00 -1°C° 0 mm 2 mps 766 mmHg 82%
    22:00 -1°C° 0 mm 2 mps 766 mmHg 82%
    23:00 -1°C° 0 mm 2 mps 766 mmHg 82%

    Day after tomorrow, 18 February, Monday

    Time Temperature Precipitation Wind Pressure Humidity
    00:00 0°C° 0 mm 1 mps 766 mmHg 81%
    01:00 0°C° 0 mm 1 mps 767 mmHg 80%
    02:00 -1°C° 0 mm 0 mps 767 mmHg 79%
    03:00 -1°C° 0 mm 0 mps 767 mmHg 78%
    04:00 0°C° 0 mm 1 mps 767 mmHg 77%
    05:00 0°C° 0 mm 1 mps 767 mmHg 76%
    06:00 0°C° 0 mm 1 mps 767 mmHg 75%
    07:00 -2°C° 0 mm 2 mps 767 mmHg 75%
    08:00 -2°C° 0 mm 2 mps 767 mmHg 75%
    09:00 -1°C° 0 mm 3 mps 767 mmHg 71%
    10:00 0°C° 0 mm 3 mps 767 mmHg 67%
    11:00 0°C° 0 mm 4 mps 767 mmHg 63%
    12:00 +1°C° 0 mm 4 mps 767 mmHg 66%
    13:00 +3°C° 0 mm 4 mps 767 mmHg 69%
    14:00 +3°C° 0 mm 4 mps 766 mmHg 72%
    15:00 +3°C° 0 mm 4 mps 766 mmHg 78%
    16:00 +3°C° 0 mm 4 mps 765 mmHg 83%
    17:00 +1°C° 0 mm 5 mps 765 mmHg 88%
    18:00 +1°C° 0 mm 5 mps 765 mmHg 89%
    19:00 +1°C° 0 mm 5 mps 764 mmHg 90%
    20:00 +1°C° 0 mm 5 mps 764 mmHg 91%
    21:00 +1°C° 0 mm 5 mps 764 mmHg 91%
    22:00 +1°C° 0 mm 5 mps 763 mmHg 90%
    23:00 +1°C° 0 mm 5 mps 763 mmHg 90%

    19 February, Tuesday

    Time Temperature Precipitation Wind Pressure Humidity
    00:00 0°C° 0 mm 5 mps 763 mmHg 90%
    01:00 0°C° 0 mm 5 mps 762 mmHg 91%
    02:00 0°C° 0 mm 5 mps 762 mmHg 91%
    03:00 0°C° 0 mm 5 mps 762 mmHg 91%
    04:00 0°C° 0 mm 5 mps 761 mmHg 92%
    05:00 0°C° 0 mm 5 mps 760 mmHg 92%
    06:00 -1°C° 0 mm 5 mps 760 mmHg 92%
    07:00 -1°C° 0 mm 5 mps 760 mmHg 92%
    08:00 -1°C° 0 mm 5 mps 759 mmHg 92%
    09:00 0°C° 0 mm 5 mps 759 mmHg 88%
    10:00 +1°C° 0 mm 5 mps 759 mmHg 84%
    11:00 +2°C° 0 mm 5 mps 758 mmHg 80%
    12:00 +3°C° 0 mm 5 mps 758 mmHg 77%
    13:00 +3°C° 0 mm 5 mps 757 mmHg 75%
    14:00 +5°C° 0 mm 5 mps 756 mmHg 73%
    15:00 +3°C° 0 mm 5 mps 756 mmHg 75%
    16:00 +3°C° 0 mm 5 mps 756 mmHg 77%
    17:00 +3°C° 0 mm 5 mps 755 mmHg 79%
    18:00 +2°C° 0 mm 5 mps 755 mmHg 81%
    19:00 +2°C° 0 mm 5 mps 754 mmHg 84%
    20:00 +2°C° 0 mm 6 mps 754 mmHg 86%
    21:00 +2°C° 0.3 mm 5 mps 754 mmHg 86%
    22:00 +2°C° 0.3 mm 5 mps 754 mmHg 87%
    23:00 +3°C° 0.3 mm 5 mps 753 mmHg 87%

    20 February, Wednesday

    Time Temperature Precipitation Wind Pressure Humidity
    00:00 +2°C° 0 mm 5 mps 753 mmHg 88%
    01:00 +2°C° 0 mm 5 mps 754 mmHg 88%
    02:00 +2°C° 0 mm 5 mps 754 mmHg 88%
    03:00 +1°C° 0 mm 5 mps 754 mmHg 88%
    04:00 +1°C° 0 mm 5 mps 754 mmHg 88%
    05:00 +1°C° 0 mm 6 mps 754 mmHg 87%
    06:00 +1°C° 0 mm 6 mps 754 mmHg 86%
    07:00 +2°C° 0 mm 6 mps 754 mmHg 85%
    08:00 +2°C° 0 mm 6 mps 754 mmHg 83%
    09:00 +2°C° 0.1 mm 6 mps 754 mmHg 81%
    10:00 +2°C° 0.1 mm 6 mps 754 mmHg 80%
    11:00 +3°C° 0.1 mm 6 mps 754 mmHg 78%
    12:00 +3°C° 0.1 mm 6 mps 754 mmHg 76%
    13:00 +3°C° 0.1 mm 6 mps 755 mmHg 74%
    14:00 +3°C° 0.1 mm 6 mps 755 mmHg 72%
    15:00 +3°C° 0.1 mm 6 mps 755 mmHg 72%
    16:00 +3°C° 0.1 mm 6 mps 755 mmHg 72%
    17:00 +3°C° 0.1 mm 6 mps 755 mmHg 72%
    18:00 +2°C° 0 mm 6 mps 756 mmHg 74%
    19:00 +1°C° 0 mm 6 mps 756 mmHg 75%
    20:00 -1°C° 0 mm 6 mps 757 mmHg 77%
    21:00 0°C° 0 mm 5 mps 757 mmHg 77%
    22:00 0°C° 0 mm 5 mps 757 mmHg 76%
    23:00 -1°C° 0 mm 5 mps 758 mmHg 76%

    21 February, Thursday

    Time Temperature Precipitation Wind Pressure Humidity
    00:00 -1°C° 0 mm 5 mps 758 mmHg 76%
    01:00 -1°C° 0 mm 5 mps 759 mmHg 76%
    02:00 -1°C° 0 mm 5 mps 759 mmHg 76%
    03:00 -2°C° 0 mm 5 mps 760 mmHg 77%
    04:00 -2°C° 0 mm 5 mps 760 mmHg 78%
    05:00 -3°C° 0 mm 6 mps 761 mmHg 79%
    06:00 -4°C° 0 mm 5 mps 761 mmHg 78%
    07:00 -4°C° 0 mm 5 mps 762 mmHg 77%
    08:00 -5°C° 0 mm 5 mps 763 mmHg 76%
    09:00 -4°C° 0 mm 5 mps 763 mmHg 71%
    10:00 -4°C° 0 mm 5 mps 764 mmHg 67%
    11:00 -2°C° 0 mm 4 mps 765 mmHg 63%
    12:00 -2°C° 0 mm 4 mps 765 mmHg 61%
    13:00 -2°C° 0 mm 4 mps 766 mmHg 60%
    14:00 -1°C° 0 mm 3 mps 766 mmHg 59%
    15:00 -1°C° 0 mm 3 mps 767 mmHg 59%
    16:00 -1°C° 0 mm 3 mps 767 mmHg 60%
    17:00 -2°C° 0 mm 2 mps 767 mmHg 61%
    18:00 -2°C° 0 mm 3 mps 768 mmHg 61%
    19:00 -2°C° 0 mm 3 mps 769 mmHg 60%
    20:00 -4°C° 0 mm 3 mps 769 mmHg 59%
    21:00 -4°C° 0 mm 3 mps 770 mmHg 57%
    22:00 -4°C° 0 mm 3 mps 770 mmHg 54%
    23:00 -4°C° 0 mm 3 mps 771 mmHg 52%
    Show more